D420KT RJNW-RJTT

Flight info

Callsign D420KT
Flight time 0h 59m
Altitude 33000
Route URUSI TOE RJTK
Aircraft HDJT/L-SABDGRWY/H

Departure

Time 2026-05-04 11:24
Airport Noto Satoyama Airport (RJNW)

Arrival

Time 2026-05-04 12:24
Airport Tokyo Haneda International Airport (RJTT)
Time Latitude Longitude Altitude Speed Heading
2026-05-04 10:54 37.29575 136.96150 717 ft 0 kts 244°
2026-05-04 11:19 37.29545 136.96140 720 ft 4 kts 169°
2026-05-04 11:19 37.29507 136.96159 718 ft 9 kts 157°
2026-05-04 11:19 37.29442 136.96194 717 ft 10 kts 157°
2026-05-04 11:19 37.29436 136.96197 718 ft 0 kts 157°
2026-05-04 11:20 37.29408 136.96212 718 ft 10 kts 156°
2026-05-04 11:20 37.29355 136.96294 716 ft 16 kts 65°
2026-05-04 11:22 37.29666 136.97185 712 ft 0 kts 245°
2026-05-04 11:24 37.28564 136.94539 1678 ft 127 kts 230°
2026-05-04 11:25 37.27672 136.94096 2128 ft 156 kts 190°
2026-05-04 11:25 37.26535 136.94434 2622 ft 179 kts 165°
2026-05-04 11:25 37.25328 136.94978 3103 ft 189 kts 167°
2026-05-04 11:26 37.22673 136.96084 4100 ft 215 kts 167°
2026-05-04 11:27 37.10767 137.01093 7813 ft 293 kts 167°
2026-05-04 11:28 37.08836 137.01904 8341 ft 300 kts 168°
2026-05-04 11:28 37.06833 137.02744 8880 ft 307 kts 168°
2026-05-04 11:28 37.04810 137.03597 9437 ft 297 kts 168°
2026-05-04 11:28 37.02851 137.04418 10080 ft 297 kts 168°
2026-05-04 11:29 37.00905 137.05227 10639 ft 300 kts 168°
2026-05-04 11:29 36.98915 137.06059 11218 ft 303 kts 168°
2026-05-04 11:29 36.96883 137.06912 11805 ft 305 kts 168°
2026-05-04 11:29 36.94888 137.07744 12376 ft 308 kts 168°
2026-05-04 11:31 36.80910 137.13522 15918 ft 322 kts 174°
2026-05-04 11:33 36.65812 137.20411 19231 ft 363 kts 152°
2026-05-04 11:33 36.63975 137.22653 19606 ft 378 kts 141°
2026-05-04 11:33 36.62433 137.25372 20016 ft 393 kts 129°
2026-05-04 11:34 36.61112 137.28376 20379 ft 397 kts 128°
2026-05-04 11:34 36.59779 137.31396 20776 ft 399 kts 129°
2026-05-04 11:34 36.58424 137.34419 21171 ft 401 kts 130°
2026-05-04 11:34 36.57062 137.37467 21566 ft 404 kts 129°
2026-05-04 11:35 36.55697 137.40539 21942 ft 407 kts 130°
2026-05-04 11:35 36.54321 137.43631 22258 ft 410 kts 130°
2026-05-04 11:35 36.52935 137.46739 22692 ft 412 kts 130°
2026-05-04 11:35 36.51607 137.49714 23065 ft 415 kts 130°
2026-05-04 11:36 36.50266 137.52712 23443 ft 417 kts 131°
2026-05-04 11:36 36.48856 137.55863 23764 ft 419 kts 131°
2026-05-04 11:36 36.47510 137.58868 24098 ft 420 kts 131°
2026-05-04 11:36 36.46171 137.61855 24402 ft 422 kts 131°
2026-05-04 11:37 36.44777 137.64964 24653 ft 423 kts 132°
2026-05-04 11:37 36.43462 137.67889 24890 ft 425 kts 132°
2026-05-04 11:37 36.42036 137.71060 25201 ft 426 kts 132°
2026-05-04 11:37 36.40682 137.74074 25340 ft 426 kts 133°
2026-05-04 11:38 36.39233 137.77294 25603 ft 428 kts 132°
2026-05-04 11:38 36.37775 137.80524 25577 ft 427 kts 133°
2026-05-04 11:38 36.36323 137.83739 25844 ft 427 kts 133°
2026-05-04 11:38 36.34904 137.86886 26050 ft 430 kts 133°
2026-05-04 11:39 36.33439 137.90125 26286 ft 432 kts 133°
2026-05-04 11:39 36.31967 137.93379 26560 ft 433 kts 133°
2026-05-04 11:40 36.23034 138.13054 28003 ft 439 kts 134°
2026-05-04 11:41 36.21529 138.16354 28220 ft 441 kts 134°
2026-05-04 11:41 36.20022 138.19660 28386 ft 440 kts 134°
2026-05-04 11:41 36.18514 138.22959 28487 ft 442 kts 134°
2026-05-04 11:41 36.17002 138.26274 28735 ft 439 kts 134°
2026-05-04 11:42 36.15505 138.29552 29006 ft 437 kts 135°
2026-05-04 11:42 36.14002 138.32824 29165 ft 438 kts 135°
2026-05-04 11:42 36.12495 138.36110 29311 ft 439 kts 135°
2026-05-04 11:42 36.11008 138.39355 29439 ft 440 kts 135°
2026-05-04 11:43 36.09498 138.42646 29573 ft 440 kts 135°
2026-05-04 11:43 36.07985 138.45933 29700 ft 440 kts 135°
2026-05-04 11:43 36.06474 138.49218 29815 ft 439 kts 135°
2026-05-04 11:43 36.04967 138.52493 29935 ft 439 kts 135°
2026-05-04 11:44 36.03455 138.55769 30036 ft 440 kts 135°
2026-05-04 11:44 36.01939 138.59053 30151 ft 441 kts 135°
2026-05-04 11:44 36.00420 138.62341 30262 ft 442 kts 135°
2026-05-04 11:45 35.97370 138.68937 30402 ft 442 kts 135°
2026-05-04 11:45 35.95847 138.72227 30537 ft 442 kts 135°
2026-05-04 11:45 35.94326 138.75508 30586 ft 441 kts 136°
2026-05-04 11:46 35.91260 138.82099 30709 ft 443 kts 135°
2026-05-04 11:46 35.89734 138.85391 30865 ft 442 kts 135°
2026-05-04 11:46 35.88218 138.88663 31176 ft 435 kts 136°
2026-05-04 11:46 35.86729 138.91865 31462 ft 427 kts 136°
2026-05-04 11:47 35.85256 138.95014 31832 ft 421 kts 136°
2026-05-04 11:47 35.83801 138.98119 32192 ft 416 kts 137°
2026-05-04 11:47 35.82365 139.01192 32482 ft 413 kts 137°
2026-05-04 11:47 35.80929 139.04258 32724 ft 413 kts 137°
2026-05-04 11:48 35.79479 139.07339 32742 ft 419 kts 137°
2026-05-04 11:48 35.76510 139.13597 32751 ft 421 kts 141°
2026-05-04 11:48 35.74743 139.16360 32760 ft 401 kts 152°
2026-05-04 11:49 35.72706 139.18560 32768 ft 380 kts 162°
2026-05-04 11:49 35.70494 139.20143 32770 ft 357 kts 173°
2026-05-04 11:49 35.68206 139.21121 32765 ft 342 kts 181°
2026-05-04 11:50 35.63594 139.22631 32602 ft 350 kts 179°
2026-05-04 11:50 35.61229 139.23632 32068 ft 370 kts 174°
2026-05-04 11:50 35.58845 139.25076 31591 ft 391 kts 167°
2026-05-04 11:50 35.56496 139.26809 31111 ft 395 kts 164°
2026-05-04 11:51 35.54178 139.28586 30649 ft 389 kts 166°
2026-05-04 11:51 35.51837 139.30159 30187 ft 381 kts 169°
2026-05-04 11:51 35.49437 139.31631 29692 ft 392 kts 169°
2026-05-04 11:51 35.47016 139.33225 29079 ft 396 kts 166°
2026-05-04 11:52 35.44633 139.34906 28479 ft 393 kts 166°
2026-05-04 11:52 35.42262 139.36521 27890 ft 387 kts 168°
2026-05-04 11:52 35.39897 139.38059 27311 ft 383 kts 168°
2026-05-04 11:52 35.37552 139.39603 26743 ft 382 kts 167°
2026-05-04 11:53 35.35228 139.41171 26185 ft 380 kts 167°
2026-05-04 11:53 35.32949 139.42703 25607 ft 377 kts 167°
2026-05-04 11:53 35.30643 139.44230 25079 ft 377 kts 167°
2026-05-04 11:53 35.28311 139.45777 24614 ft 375 kts 167°
2026-05-04 11:55 35.12548 139.56253 21211 ft 363 kts 166°
2026-05-04 11:55 35.10335 139.57719 20720 ft 360 kts 166°
2026-05-04 11:56 35.08139 139.59173 20246 ft 358 kts 166°
2026-05-04 11:56 35.05953 139.60619 19770 ft 357 kts 166°
2026-05-04 11:56 35.03777 139.62058 19304 ft 355 kts 165°
2026-05-04 11:56 35.01608 139.63491 18824 ft 353 kts 165°
2026-05-04 11:57 34.99457 139.64913 18375 ft 351 kts 165°
2026-05-04 11:57 34.97310 139.66329 17912 ft 350 kts 164°
2026-05-04 11:57 34.95177 139.67736 17405 ft 348 kts 164°
2026-05-04 11:57 34.93054 139.69137 16894 ft 346 kts 164°
2026-05-04 11:58 34.90946 139.70526 16388 ft 344 kts 164°
2026-05-04 11:58 34.88843 139.71909 15911 ft 343 kts 163°
2026-05-04 11:58 34.86754 139.73285 15377 ft 341 kts 163°
2026-05-04 11:58 34.84683 139.74650 14908 ft 338 kts 164°
2026-05-04 11:59 34.82623 139.76005 14456 ft 332 kts 165°
2026-05-04 11:59 34.80603 139.77333 13992 ft 329 kts 165°
2026-05-04 11:59 34.78590 139.78654 13530 ft 328 kts 163°
2026-05-04 11:59 34.76743 139.80402 13026 ft 351 kts 142°
2026-05-04 12:00 34.75429 139.82992 12553 ft 369 kts 119°
2026-05-04 12:00 34.74925 139.86036 12117 ft 368 kts 93°
2026-05-04 12:00 34.75334 139.89029 12089 ft 352 kts 70°
2026-05-04 12:00 34.76508 139.91601 12090 ft 348 kts 46°
2026-05-04 12:01 34.78216 139.93519 12091 ft 322 kts 31°
2026-05-04 12:01 34.79868 139.95247 12080 ft 307 kts 40°
2026-05-04 12:02 34.82852 140.09917 12069 ft 303 kts 80°
2026-05-04 12:03 34.83567 140.12323 12082 ft 303 kts 60°
2026-05-04 12:03 34.84546 140.14436 12078 ft 303 kts 58°
2026-05-04 12:03 34.85584 140.16677 12083 ft 303 kts 59°
2026-05-04 12:03 34.86563 140.18823 12090 ft 304 kts 59°
2026-05-04 12:04 34.87594 140.21072 12089 ft 305 kts 60°
2026-05-04 12:04 34.88658 140.23314 12085 ft 305 kts 53°
2026-05-04 12:04 34.90057 140.25217 12087 ft 297 kts 34°
2026-05-04 12:04 34.91648 140.26669 12083 ft 277 kts 28°
2026-05-04 12:05 34.93217 140.27737 12080 ft 244 kts
2026-05-04 12:05 34.94760 140.27808 11825 ft 209 kts 327°
2026-05-04 12:05 34.95935 140.26997 11458 ft 190 kts 307°
2026-05-04 12:05 34.96885 140.25905 11084 ft 188 kts 302°
2026-05-04 12:06 34.97888 140.24850 10796 ft 195 kts 312°
2026-05-04 12:06 34.99017 140.23931 10558 ft 195 kts 316°
2026-05-04 12:06 35.00155 140.23044 10322 ft 193 kts 316°
2026-05-04 12:06 35.01269 140.22155 10087 ft 191 kts 316°
2026-05-04 12:07 35.02374 140.21268 9845 ft 189 kts 317°
2026-05-04 12:07 35.03469 140.20388 9601 ft 188 kts 318°
2026-05-04 12:07 35.04556 140.19516 9341 ft 186 kts 319°
2026-05-04 12:07 35.05636 140.18649 9091 ft 185 kts 320°
2026-05-04 12:08 35.06706 140.17790 8829 ft 184 kts 321°
2026-05-04 12:08 35.07766 140.16939 8639 ft 180 kts 322°
2026-05-04 12:08 35.08807 140.16103 8423 ft 178 kts 322°
2026-05-04 12:08 35.09832 140.15279 8217 ft 176 kts 323°
2026-05-04 12:09 35.10849 140.14466 8007 ft 173 kts 323°
2026-05-04 12:09 35.11851 140.13660 7802 ft 172 kts 323°
2026-05-04 12:09 35.12841 140.12859 7600 ft 170 kts 323°
2026-05-04 12:09 35.13791 140.12094 7404 ft 167 kts 323°
2026-05-04 12:10 35.14754 140.11318 7203 ft 165 kts 324°
2026-05-04 12:10 35.15713 140.10547 7005 ft 165 kts 324°
2026-05-04 12:10 35.16662 140.09783 6808 ft 162 kts 324°
2026-05-04 12:10 35.17593 140.09035 6617 ft 159 kts 326°
2026-05-04 12:11 35.18515 140.08290 6411 ft 159 kts 327°
2026-05-04 12:11 35.19435 140.07550 6218 ft 158 kts 327°
2026-05-04 12:11 35.20352 140.06811 6023 ft 158 kts 325°
2026-05-04 12:11 35.21268 140.06073 5814 ft 157 kts 324°
2026-05-04 12:12 35.22178 140.05338 5608 ft 156 kts 324°
2026-05-04 12:12 35.23079 140.04611 5406 ft 155 kts 324°
2026-05-04 12:12 35.23974 140.03889 5204 ft 154 kts 324°
2026-05-04 12:12 35.24864 140.03169 4999 ft 153 kts 325°
2026-05-04 12:13 35.25747 140.02459 4803 ft 151 kts 326°
2026-05-04 12:14 35.31615 139.97715 3637 ft 133 kts 326°
2026-05-04 12:15 35.32379 139.97097 3475 ft 130 kts 327°
2026-05-04 12:15 35.33135 139.96484 3310 ft 131 kts 330°
2026-05-04 12:15 35.33902 139.95865 3147 ft 133 kts 329°
2026-05-04 12:15 35.34672 139.95241 2997 ft 131 kts 329°
2026-05-04 12:16 35.35172 139.94836 2921 ft 129 kts 327°
2026-05-04 12:16 35.35913 139.94236 2797 ft 126 kts 326°
2026-05-04 12:16 35.36643 139.93645 2671 ft 125 kts 326°
2026-05-04 12:16 35.37241 139.92902 2538 ft 123 kts 310°
2026-05-04 12:17 35.37812 139.92153 2409 ft 119 kts 325°
2026-05-04 12:17 35.38493 139.91595 2220 ft 120 kts 326°
2026-05-04 12:17 35.39223 139.91025 1967 ft 126 kts 329°
2026-05-04 12:17 35.39981 139.90459 1721 ft 130 kts 330°
2026-05-04 12:18 35.40760 139.89888 1577 ft 127 kts 331°
2026-05-04 12:18 35.41476 139.89380 1570 ft 115 kts 331°
2026-05-04 12:18 35.42138 139.88917 1561 ft 105 kts 331°
2026-05-04 12:18 35.42740 139.88488 1554 ft 96 kts 331°
2026-05-04 12:19 35.43316 139.88078 1542 ft 97 kts 332°
2026-05-04 12:19 35.43909 139.87656 1527 ft 99 kts 332°
2026-05-04 12:19 35.44503 139.87235 1517 ft 98 kts 332°
2026-05-04 12:19 35.45092 139.86816 1508 ft 96 kts 332°
2026-05-04 12:20 35.45660 139.86412 1500 ft 93 kts 332°
2026-05-04 12:20 35.46221 139.86014 1490 ft 93 kts 332°
2026-05-04 12:20 35.46777 139.85621 1474 ft 94 kts 333°
2026-05-04 12:20 35.47350 139.85214 1458 ft 97 kts 332°
2026-05-04 12:21 35.47943 139.84793 1479 ft 99 kts 332°
2026-05-04 12:21 35.48544 139.84367 1338 ft 101 kts 332°
2026-05-04 12:21 35.49097 139.83971 1162 ft 84 kts 332°
2026-05-04 12:21 35.49580 139.83628 1049 ft 81 kts 332°
2026-05-04 12:22 35.50072 139.83280 951 ft 80 kts 333°
2026-05-04 12:22 35.50553 139.82938 851 ft 80 kts 332°
2026-05-04 12:22 35.51025 139.82601 757 ft 78 kts 333°
2026-05-04 12:22 35.51512 139.82253 659 ft 83 kts 333°
2026-05-04 12:23 35.52015 139.81900 559 ft 85 kts 333°
2026-05-04 12:23 35.52533 139.81532 442 ft 87 kts 333°
2026-05-04 12:23 35.53049 139.81164 333 ft 84 kts 333°
2026-05-04 12:23 35.53558 139.80804 222 ft 84 kts 334°
2026-05-04 12:24 35.54046 139.80452 118 ft 82 kts 335°
2026-05-04 12:24 35.54521 139.80121 19 ft 78 kts 331°
2026-05-04 12:24 35.54806 139.79926 19 ft 39 kts 329°
2026-05-04 12:24 35.55031 139.79776 18 ft 39 kts 333°
2026-05-04 12:25 35.55299 139.79572 18 ft 33 kts 328°
2026-05-04 12:25 35.55428 139.79434 18 ft 23 kts 311°
2026-05-04 12:25 35.55496 139.79314 18 ft 10 kts 301°
2026-05-04 12:25 35.55502 139.79300 18 ft 0 kts 300°
2026-05-04 12:29 35.55514 139.79261 18 ft 8 kts 270°
2026-05-04 12:29 35.55479 139.79206 18 ft 11 kts 191°
2026-05-04 12:29 35.55403 139.79242 18 ft 15 kts 149°
2026-05-04 12:29 35.55298 139.79316 18 ft 20 kts 152°
2026-05-04 12:30 35.55169 139.79408 18 ft 23 kts 150°
2026-05-04 12:30 35.55027 139.79508 18 ft 23 kts 150°
2026-05-04 12:30 35.54890 139.79605 18 ft 22 kts 150°
2026-05-04 12:30 35.54770 139.79675 18 ft 15 kts 185°
2026-05-04 12:31 35.54688 139.79597 18 ft 18 kts 238°
2026-05-04 12:31 35.54626 139.79470 18 ft 17 kts 239°
2026-05-04 12:31 35.54567 139.79345 18 ft 17 kts 240°
2026-05-04 12:31 35.54509 139.79226 19 ft 16 kts 238°
2026-05-04 12:32 35.54455 139.79114 19 ft 15 kts 240°
2026-05-04 12:32 35.54331 139.78856 19 ft 21 kts 239°
2026-05-04 12:32 35.54260 139.78703 19 ft 20 kts 239°
2026-05-04 12:33 35.54167 139.78594 19 ft 18 kts 169°
2026-05-04 12:33 35.54137 139.78654 18 ft 10 kts 64°
2026-05-04 12:33 35.54176 139.78734 18 ft 4 kts 58°